TimeAST,TemperatureF,Dew PointF,Humidity,Sea Level PressureIn,VisibilityMPH,Wind Direction,Wind SpeedMPH,Gust SpeedMPH,PrecipitationIn,Events,Conditions,WindDirDegrees,DateUTC
12:00 AM,-9999,-9999,N/A,30.01,-9999.0,ENE,13.8,-,N/A,,Unknown,60,2012-10-03 04:00:00
1:00 AM,-9999,-9999,N/A,30.01,-9999.0,NE,13.8,-,N/A,,Unknown,50,2012-10-03 05:00:00
2:00 AM,-9999,-9999,N/A,29.98,-9999.0,NE,12.7,-,N/A,,Unknown,50,2012-10-03 06:00:00
3:00 AM,-9999,-9999,N/A,29.98,-9999.0,NE,13.8,-,N/A,,Unknown,50,2012-10-03 07:00:00
4:00 AM,-9999,-9999,N/A,29.98,-9999.0,NE,13.8,-,N/A,,Unknown,50,2012-10-03 08:00:00
5:00 AM,,,,,,ENE,13.8,,,,Clear,60,2012-10-03 09:00:00
5:00 AM,-9999,-9999,N/A,29.98,-9999.0,NE,12.7,-,N/A,,Unknown,50,2012-10-03 09:00:00
7:00 AM,-9999,-9999,N/A,30.01,6.2,NE,15.0,-,N/A,,Partly Cloudy,50,2012-10-03 11:00:00
8:00 AM,,,,,14,ENE,12.7,,,,Clear,70,2012-10-03 12:00:00
8:00 AM,-9999,-9999,N/A,30.04,-9999.0,NE,13.8,-,N/A,,Unknown,50,2012-10-03 12:00:00
9:00 AM,-9999,-9999,N/A,30.04,-9999.0,ENE,15.0,-,N/A,,Unknown,60,2012-10-03 13:00:00
10:00 AM,-9999,-9999,N/A,30.04,6.2,ENE,16.1,-,N/A,,Scattered Clouds,60,2012-10-03 14:00:00
11:00 AM,,,,,14,ENE,18.4,,,,Partly Cloudy,60,2012-10-03 15:00:00
11:00 AM,-9999,-9999,N/A,30.04,6.2,NE,16.1,-,N/A,,Scattered Clouds,50,2012-10-03 15:00:00
12:00 PM,-9999,-9999,N/A,30.01,6.2,NE,17.3,-,N/A,,Scattered Clouds,50,2012-10-03 16:00:00
1:00 PM,-9999,-9999,N/A,30.01,6.2,NE,15.0,-,N/A,,Scattered Clouds,50,2012-10-03 17:00:00
2:00 PM,,,,,14,ENE,18.4,,,,Scattered Clouds,70,2012-10-03 18:00:00
2:00 PM,-9999,-9999,N/A,29.98,6.2,NE,16.1,-,N/A,,Partly Cloudy,50,2012-10-03 18:00:00
5:00 PM,,32,,,12,NE,15.0,,,,Partly Cloudy,50,2012-10-03 21:00:00
5:00 PM,-9999,-9999,N/A,29.98,6.2,NE,15.0,-,N/A,,Scattered Clouds,50,2012-10-03 21:00:00
6:00 PM,-9999,-9999,N/A,29.98,6.2,NE,13.8,-,N/A,,Partly Cloudy,50,2012-10-03 22:00:00
7:00 PM,-9999,-9999,N/A,29.98,6.2,NE,16.1,-,N/A,,Partly Cloudy,50,2012-10-03 23:00:00
8:00 PM,-9999,-9999,N/A,30.01,-9999.0,NE,16.1,-,N/A,,Partly Cloudy,50,2012-10-04 00:00:00
9:00 PM,-9999,-9999,N/A,30.01,-9999.0,ENE,10.4,-,N/A,,Partly Cloudy,60,2012-10-04 01:00:00
11:00 PM,,,,,,ENE,11.5,,,,Clear,70,2012-10-04 03:00:00
11:00 PM,-9999,-9999,N/A,30.01,-9999.0,ENE,11.5,-,N/A,,Unknown,60,2012-10-04 03:00:00